STARLINK-1161 (45068 NORAD) Tracking and Keplerian Element Data

This shows tracking and keplerian element data for the satellite.

Feedback or suggestion? Click here.




ElementValue
Catalog45068
NameSTARLINK-1161
Epoch Orbit2498
Epoch Day189.91668981
Epoch Year2020
RAAN202.6844
Inclination52.9969
Eccentricity0.0001098
Argument of Perigee104.9555
Mean Anonmoly44.4273
Mean Motion15.05587787
Decay Rate0.00035648
L11 45068U 20006AA 20189.91668981 .00035648 00000-0 24529-2 0 9999
L22 45068 52.9969 202.6844 0001098 104.9555 44.4273 15.05587787 24988

Live tracking and technical data element details for STARLINK-1161 (NORAD 45068). STARLINK-1161 can be tracked NOW for your location showing map with azimuth and elevation plus other details from your city location.

Track the satellite on the map from your city or location and see movement details for azimuth, elevation, latitude, longitude, range, height, and movement on the map or in text.







IsCatalogInMostPopularTable: catalog: 45068, numindb: 26
Update: records affected: 1



GetName: 45068 STARLINK-1161

Hit Count: updated at: Thu, 09 Jul 2020 01:14:03 GMT